User: anonymous   Login
Location: Central Falls
(41.8900°N, 71.3929°W)
Time: 06:45:29
(UTC+00:00)
Language:

deb Transtage 4 - Orbit

View from above orbital plane
View from above orbital plane
View from above satellite
View from above satellite

Ground track
Ground track

The orbit data is extracted from the following two-line orbital elements,

1 02789U 65082KR  24141.47471109  .00027803  00000-0  31556-2 0  9994
2 02789  32.2801 203.9681 0073169 290.6241  68.6578 14.83374635966806
Epoch (UTC): 20 May 2024 11:23:35
Eccentricity: 0.0073169
inclination: 32.2801°
perigee height: 567 km
apogee height: 670 km
right ascension of ascending node: 203.9681°
argument of perigee: 290.6241°
revolutions per day: 14.83374635
mean anomaly at epoch: 68.6578°
orbit number at epoch: 96680

The dashed part of the orbit path shows where the satellite is in the earth's shadow,  

DLR